Location: Carsan
(44.2342°N, 4.5958°E)
Time: 11:29:35
(UTC+00:00)

Daily predictions for brighter satellites

Satellite Brightness Start Highest point End
(mag) Time Altitude Azimuth Time Altitude Azimuth Time Altitude Azimuth
BREEZE-M R/B 4.4 16:27:02 10° WNW 16:30:20 40° SSW 16:36:13 10° SE
Cosmos 1464 Rocket 4.2 16:28:04 10° S 16:34:27 83° W 16:40:52 10° N
USA 229 DEB 4.0 16:28:59 10° NW 16:36:19 68° NE 16:44:05 10° SE
USA 229 4.0 16:29:05 10° NW 16:36:24 68° NE 16:44:10 10° SE
Cosmos 1937 Rocket 4.0 16:32:52 10° N 16:37:54 40° ENE 16:42:53 10° SE
Cosmos 1500 Rocket 3.6 16:36:28 10° N 16:40:54 62° E 16:45:14 10° SSE
Cosmos 1666 4.4 16:39:21 10° NE 16:40:58 12° ENE 16:42:34 10° E
Spot 1 4.4 16:36:14 10° NNE 16:41:00 88° ESE 16:45:58 10° SSW
Nadezhda 4 Rocket 4.1 16:36:26 10° N 16:42:49 84° E 16:49:09 10° S
SL-24 R/B - RUBIN 2 4.4 16:39:01 10° NNW 16:43:01 29° NE 16:46:49 10° ESE
Cosmos 990 Rocket 4.0 16:39:41 10° NNW 16:44:55 84° ENE 16:50:05 10° SSE
FengYun 1-2 T 4.2 16:39:43 10° SSE 16:45:15 70° ENE 16:50:48 10° N
Cosmos 1697 Rocket 2.7 16:41:39 10° NNW 16:47:13 61° ENE 16:52:46 10° SE
NOAA 6 4.1 16:43:39 10° SSE 16:48:41 59° ENE 16:53:44 10° N
Sich 1 3.6 16:46:37 10° N 16:50:35 36° ENE 16:54:33 10° SE
Cosmos 2221 3.5 16:46:39 10° SSW 16:50:48 49° WNW 16:55:00 10° N
Cosmos 1980 Rocket 2.7 16:46:12 10° NNW 16:51:25 36° NE 16:56:35 10° ESE
Cosmos 1805 Rocket 3.7 16:48:25 10° N 16:52:38 48° ENE 16:56:49 10° SSE
Cosmos 2369 4.0 16:47:53 10° NNW 16:53:26 47° ENE 16:58:55 10° SE
USA 234 3.3 16:48:41 10° ESE 16:55:11 69° NE 17:01:40 10° NW
Cosmos 1842 Rocket 4.5 16:51:18 10° SSW 16:55:39 53° WNW 17:00:04 10° N
CZ-4C R/B 3.4 16:50:59 10° NNW 16:57:36 41° NE 17:05:17 10° ESE
Cosmos 1092 Rocket 4.0 16:52:22 10° N 16:58:44 67° E 17:05:00 10° SSE
Cosmos 2084 3.8 16:55:03 10° NW 16:59:22 75° SW 17:03:52 10° SSE
Cosmos 1812 3.8 16:56:31 10° SE 16:59:38 24° E 17:02:43 10° NE
NOSS 3-1 (A) 4.2 16:52:20 10° NW 16:59:58 87° SW 17:08:51 10° SSE
USA 306 4.5 16:57:30 10° NW 17:00:49 21° N 17:03:35 12° NE
Cosmos 1428 Rocket 4.5 16:55:22 10° N 17:01:26 61° E 17:07:31 10° SSE
SL-16 R/B 3.7 16:58:58 10° N 17:02:22 16° NE 17:04:16 14° ENE
ISS -3.0 16:59:30 10° NW 17:02:41 36° NNE 17:04:59 16° E
deb Chang Zheng 4 4.5 17:00:41 10° ESE 17:04:16 26° ENE 17:07:51 10° N
Meteor 1-25 Rocket 4.2 16:58:47 10° N 17:04:24 83° E 17:10:01 10° SSE
SMAP 3.0 17:00:02 10° SSE 17:04:41 83° ENE 17:09:21 10° NNW
Cosmos 2082 Rocket 2.5 16:59:53 10° S 17:05:16 46° ESE 17:10:40 10° NE
NOSS 2-2 (E) 4.5 17:00:29 10° NNW 17:05:47 63° NE 17:13:12 10° SE
Cosmos 1939 Rocket 3.0 17:01:49 10° SSE 17:05:55 85° WSW 17:10:02 10° NNW
MOS 1-B Rocket 4.4 17:00:15 10° NNE 17:05:57 45° E 17:12:23 10° S
CORIOLIS 4.1 17:02:14 10° SSE 17:07:37 78° ENE 17:13:03 10° NNW
Cosmos 858 Rocket 4.5 17:05:10 10° NNW 17:10:28 69° ENE 17:15:42 10° SSE
Cosmos 44 Rocket 4.5 17:08:30 10° NNW 17:12:24 23° NE 17:14:23 18° ENE
CZ-4B DEB 4.1 17:08:29 10° SSE 17:13:59 76° ENE 17:19:29 10° NNW
Cosmos 2278 4.1 17:12:04 10° NNW 17:17:29 41° ENE 17:22:50 10° SE
Cosmos 1602 3.7 17:13:58 10° N 17:17:50 86° WSW 17:21:42 10° S
AQUARIUS 4.2 17:14:07 10° SSE 17:18:36 84° W 17:23:07 10° NNW
USA 307 4.5 17:16:21 10° NW 17:19:43 22° N 17:21:38 16° NE
Cosmos 1627 Rocket 4.4 17:13:59 10° N 17:20:11 82° E 17:26:18 10° S
Cosmos 540 Rocket 3.4 17:15:09 10° SSW 17:20:15 88° WNW 17:25:24 10° NNE
ARGOS 3.5 17:19:12 10° SE 17:24:13 41° ENE 17:29:16 10° N
Cosmos 1570 Rocket 4.4 17:20:06 10° S 17:25:00 41° ESE 17:28:35 17° NE
Cosmos 2279 Rocket 4.1 17:19:10 10° SSE 17:25:09 52° E 17:31:08 10° NNE
COSMOS 2406 3.4 17:20:13 10° SSW 17:25:58 76° WNW 17:31:44 10° NNE
COSMO-SKYMED 1 3.0 17:23:24 13° NNE 17:26:56 41° E 17:31:02 10° S
Cosmos 1833 Rocket 3.2 17:21:49 10° SW 17:27:20 58° WNW 17:32:54 10° NNE
Cosmos 1782 2.8 17:24:37 10° S 17:28:37 86° W 17:32:38 10° N
Cosmos 1814 Rocket 4.1 17:24:44 10° S 17:29:48 53° ESE 17:33:44 16° NNE
Meteor 2-21 4.4 17:25:04 10° N 17:31:11 88° E 17:37:14 10° S
ATLAS 5 CENTAUR R/B 3.1 17:25:53 10° NW 17:32:08 27° NNE 17:33:08 24° NE
Cosmos 921 Rocket 4.2 17:29:49 10° SSE 17:32:43 23° ESE 17:32:43 23° ESE
CZ-2C R/B 3.7 17:32:51 10° S 17:33:49 11° SSE 17:34:47 10° SE
Cosmos 1633 Rocket 3.2 17:31:33 10° N 17:35:49 49° ENE 17:40:04 10° SSE
Cosmos 1818 4.2 17:31:37 10° NNW 17:36:40 36° NE 17:38:50 26° E
CZ-2D R/B 3.4 17:35:36 10° S 17:39:25 75° WSW 17:43:15 10° NNW
GEOS 3 Rocket 4.4 17:37:59 26° ENE 17:39:34 32° NE 17:44:07 10° NNW
Meteor 2-6 Rocket 4.4 17:34:31 10° SSE 17:40:03 49° E 17:45:14 11° NNE
Cosmos 1634 Rocket 4.2 17:35:46 10° SSW 17:42:05 76° W 17:48:27 10° N
SJ-11-01 4.3 17:37:30 10° SSE 17:42:08 56° ENE 17:46:47 10° N
USA 308 4.4 17:39:03 10° NW 17:42:26 22° N 17:43:13 21° NNE
COSMOS 2455 2.9 17:37:16 10° SW 17:43:18 80° WNW 17:48:14 16° NNE
PAYLOAD B 4.4 17:38:13 10° SSE 17:43:49 79° WSW 17:49:27 10° NNW
CZ-4B R/B 3.0 17:40:56 10° SSE 17:46:22 78° ENE 17:51:43 10° NNW
CZ-2C R/B 2.5 17:41:13 10° NNE 17:46:25 68° ESE 17:51:33 10° S
Cosmos 1500 3.8 17:43:38 10° NNW 17:47:19 57° W 17:50:58 10° S
Cosmos 1151 Rocket 2.9 17:43:18 10° S 17:47:36 80° E 17:51:27 13° N
Cosmos 2026 Rocket 4.4 17:42:53 10° NNW 17:48:56 63° W 17:54:53 10° S
Okean O Rocket 1.5 17:46:03 10° SSE 17:50:27 66° ENE 17:54:53 10° N
Lacrosse 5 rocket 2.3 17:47:24 10° NNW 17:50:36 29° NNE 17:50:36 29° NNE
SKYMED 3 4.4 17:47:47 17° NNE 17:51:07 76° ESE 17:55:26 10° S
Meteor 2-15 4.4 17:51:30 10° S 17:57:27 57° E 18:03:24 10° NNE
Cosmos 2208 Rocket 4.0 17:53:37 10° S 17:58:57 67° ESE 18:01:39 30° NNE
CZ-4 R/B 4.3 17:55:41 10° SSE 17:59:47 78° ENE 18:03:56 10° N
Cosmos 1666 Rocket 3.8 17:57:13 10° NNW 18:01:39 72° W 18:06:02 10° S
Meteor 1-10 Rocket 4.3 17:56:17 10° S 18:01:54 55° E 18:04:52 27° NNE
H-2A R/B 2.6 17:57:29 10° S 18:02:35 57° W 18:07:34 10° NNW
Meteor 1-11 Rocket 3.9 17:58:26 10° N 18:03:48 44° ENE 18:05:46 33° ESE
USA 267 4.0 18:01:04 22° NE 18:04:54 43° NNW 18:10:58 10° W
Cosmos 1470 Rocket 3.5 18:00:30 10° N 18:04:54 59° E 18:09:19 10° SSE
Cosmos 2150 Rocket 4.2 18:00:05 10° N 18:04:48 44° NE 18:04:48 44° NE
Cosmos 1328 Rocket 3.5 18:00:42 10° S 18:05:08 87° E 18:07:30 28° N
Cosmos 1655 Rocket 4.0 18:00:44 10° N 18:07:06 61° E 18:13:21 10° SSE
USA 305 4.3 18:05:44 10° NW 18:08:46 25° N 18:08:46 25° N
Cosmos 2360 Rocket 3.9 18:05:03 10° N 18:07:10 18° NNE 18:07:10 18° NNE
Landsat 5 3.2 18:08:42 57° NNE 18:09:28 84° ESE 18:13:27 10° SSW
Cosmos 2180 Rocket 4.5 18:07:30 10° S 18:13:52 88° W 18:20:11 10° N
SKYMED 2 4.0 18:12:00 19° N 18:15:03 60° WNW 18:19:19 10° SSW
Feng Yun 1-1 Rocket 4.2 18:09:53 10° SSE 18:15:46 74° ENE 18:21:39 10° N
Cosmos 1666 3.6 18:13:11 10° NNW 18:16:47 46° W 18:20:19 10° SSW
Meteor 2-8 Rocket 4.4 18:11:17 10° S 18:17:27 85° W 18:23:40 10° N
ATLAS CENTAUR R/B 3.5 18:11:51 10° WSW 18:19:11 34° NW 18:20:43 27° N
Cosmos 1125 Rocket 3.8 18:18:00 10° NNW 18:22:14 50° NNE 18:22:14 50° NNE
Cosmos 2322 Rocket 3.1 18:24:12 10° NNW 18:27:48 34° NNE 18:27:48 34° NNE
SL-08 RB Rocket 4.0 18:29:08 10° S 18:33:44 66° W 18:38:20 10° NNW
Cosmos 1980 Rocket 3.6 18:30:16 10° NW 18:35:24 37° WSW 18:40:29 10° S
ATLAS 2AS CENTAUR R/B 4.4 18:32:12 10° NNW 18:37:03 18° N 18:37:27 18° NNE
USA 234 4.5 18:32:25 10° SSE 18:38:26 39° SW 18:44:29 10° WNW
ISS -1.5 18:36:18 10° WNW 18:37:58 25° W 18:37:58 25° W
CZ-4C R/B 3.4 18:39:18 10° NW 18:46:38 63° WSW 18:55:03 10° SSE
SL-16 R/B 2.5 18:41:44 10° NNW 18:46:11 56° N 18:46:11 56° N
Cosmos 2082 Rocket 3.8 18:44:34 10° WSW 18:49:32 30° NW 18:52:35 19° N
Cosmos 44 Rocket 4.1 18:49:32 10° NW 18:53:10 47° WNW 18:53:10 47° WNW
Cosmos 2333 Rocket 4.5 18:53:50 10° N 18:54:26 12° N 18:54:26 12° N
CZ-2C R/B 4.3 19:09:33 10° SW 19:09:35 10° SW 19:09:35 10° SW
BREEZE-M DEB (TANK) 4.4 19:25:23 10° WSW 19:44:57 72° WNW 19:44:57 72° WNW
